This demonstration page uses our WeatherBlox Daily Observations layout. Learn more.

Left ArrowRight Arrow

Hourly Observations for June 25, 2020

Temp ( °F °C ) Dew Point ( °F °C ) Humidity (%) Winds ( mph kmh ) Pressure ( in mb ) Visibility ( mi km ) Precip ( " mm )
12:53 am 00:53 Cloudy with Light Rain 70 21 68 20 94 94 undefined N/A 29.99 1015 10 16 0.00 0.00
1:53 am 01:53 Cloudy with Light Rain 70 21 66 19 88 88 undefined N/A 29.98 1015 6 10 0.00 0.00
2:53 am 02:53 Cloudy with Light Rain 70 21 66 19 88 88 undefined N/A 29.97 1015 6 10 0.00 0.00
3:53 am 03:53 Cloudy 70 21 68 20 94 94 undefined N/A 29.97 1015 10 16 0.00 0.00
4:53 am 04:53 Mostly Clear 70 21 66 19 88 88 undefined N/A 29.97 1015 10 16 0.00 0.00
5:53 am 05:53 Cloudy 70 21 66 19 88 88 undefined N/A 30.00 1016 10 16 0.00 0.00
6:53 am 06:53 Cloudy 70 21 68 20 94 94 SSW 5 7 30.02 1016 10 16 0.00 0.00
7:53 am 07:53 Cloudy 72 22 68 20 88 88 SSW 6 9 30.03 1017 10 16 0.00 0.00
8:53 am 08:53 Cloudy 72 22 68 20 88 88 SW 6 9 30.05 1018 10 16 0.00 0.00
9:53 am 09:53 Cloudy 73 23 66 19 78 78 W 8 13 30.08 1019 10 16 0.00 0.00
10:53 am 10:53 Cloudy 73 23 66 19 78 78 W 9 15 30.09 1019 10 16 0.00 0.00
11:53 am 11:53 Cloudy 77 25 66 19 69 69 WNW 7 11 30.09 1019 10 16 0.00 0.00
12:53 pm 12:53 Mostly Cloudy 81 27 66 19 62 62 NW 8 13 30.09 1019 10 16 0.00 0.00
1:53 pm 13:53 Mostly Cloudy with Light Rain 79 26 66 19 65 65 W 8 13 30.08 1019 9 14 0.00 0.00
2:53 pm 14:53 Mostly Cloudy 82 28 66 19 58 58 WNW 8 13 30.06 1018 10 16 0.00 0.00
3:53 pm 15:53 Mostly Cloudy 82 28 68 20 62 62 SW 9 15 30.05 1018 10 16 0.00 0.00
4:53 pm 16:53 Mostly Cloudy 82 28 66 19 58 58 undefined N/A 30.04 1017 10 16 0.00 0.00
5:53 pm 17:53 Cloudy with Light Rain 77 25 72 22.2 85 85 SSW 6 9 30.06 1018 10 16 0.00 0.00
6:53 pm 18:53 Partly Cloudy 78 25.6 73 22.8 85 85 S 7 11 30.07 1018 10 16 0.01 0.25
7:53 pm 19:53 Mostly Sunny 79 26.1 71 21.7 77 77 SSW 7 11 30.07 1018 10 16 0.00 0.00
8:53 pm 20:53 Mostly Cloudy 77 25 70 21.1 79 79 SSW 6 9 30.09 1019 10 16 0.00 0.00
9:53 pm 21:53 Clear 76 24.4 70 21.1 82 82 SSW 5 7 30.11 1020 10 16 0.00 0.00
10:53 pm 22:53 Mostly Clear 75 23.9 70 21.1 84 84 WSW 3 6 30.12 1020 10 16 0.00 0.00
11:53 pm 23:53 Clear 74 23.3 70 21.1 88 88 SSW 6 9 30.12 1020 10 16 0.00 0.00

Powered by AerisWeather